Weather reports worldwide

Advertisment
Vlissingen, Netherlands (6310): temperature & dewpoint: 11.10.2019 23:00:00 - 17.10.2019 23:00:00 (CEST)Vlissingen, Netherlands (6310): temperature 5cm: 11.10.2019 23:00:00 - 17.10.2019 23:00:00 (CEST)Vlissingen, Netherlands (6310): wind speed & gusts: 11.10.2019 23:00:00 - 17.10.2019 23:00:00 (CEST)Vlissingen, Netherlands (6310): wind direction: 11.10.2019 23:00:00 - 17.10.2019 23:00:00 (CEST)Vlissingen, Netherlands (6310): reduced air pressure: 11.10.2019 23:00:00 - 17.10.2019 23:00:00 (CEST)Vlissingen, Netherlands (6310): visibility: 11.10.2019 23:00:00 - 17.10.2019 23:00:00 (CEST)Vlissingen, Netherlands (6310): precipitation: 11.10.2019 23:00:00 - 17.10.2019 23:00:00 (CEST)
Date & Time tt [°C] td [°C] tt 5cm [°C] ff [km/h] ff [kn] fx [km/h] fx [kn] dd ppp [hPa] vv [km] rr [mm]
17.10.2019 23:00:00 13,6 11,7 13,1 29 16 36 19 S 1007,2 10 0,0
17.10.2019 22:00:00 13,7 10,7 13,1 22 12 29 16 S 1007,4 10 0,0
17.10.2019 21:00:00 13,8 10,7 13,0 21 11 25 14 S 1007,9 10 0,0
17.10.2019 20:00:00 14,1 10,9 13,0 18 10 22 12 S 1008,2 10 0,0
17.10.2019 19:00:00 14,7 11,1 13,5 18 10 22 12 S 1008,1 10 0,0
17.10.2019 18:00:00 15,2 11,0 14,6 21 11 25 14 S 1008,0 10 0,0
17.10.2019 17:00:00 15,4 10,8 15,6 16 9 25 14 S 1008,2 10 0,0
17.10.2019 16:00:00 15,6 10,6 15,8 16 9 22 12 SSW 1008,6 10 0,0
17.10.2019 15:00:00 15,1 10,6 16,2 24 13 32 18 S 1008,9 10 0,0
17.10.2019 14:00:00 14,8 10,9 14,8 22 12 29 16 S 1009,3 10 0,0
17.10.2019 13:00:00 14,8 11,1 16,1 22 12 29 16 SSW 1009,5 10 0,0
17.10.2019 12:00:00 13,9 11,3 14,5 21 11 29 16 SSW 1009,9 10 0,0
17.10.2019 11:00:00 13,0 11,4 13,0 21 11 25 14 SSW 1009,8 10 0,1
17.10.2019 10:00:00 12,1 10,9 12,0 24 13 40 21 SSW 1009,7 10 0,0
17.10.2019 09:00:00 12,3 10,8 11,7 21 11 25 14 SW 1009,2 10 0,0
17.10.2019 08:00:00 11,9 10,9 11,2 26 14 29 16 SW 1008,9 10 0,0
17.10.2019 07:00:00 12,1 11,4 11,5 24 13 32 18 SW 1008,2 6 0,0
17.10.2019 06:00:00 12,7 12,0 12,2 18 10 22 12 SSW 1007,8 9 0,0
17.10.2019 05:00:00 13,2 11,2 12,0 13 7 18 10 W 1007,4 10 0,0
17.10.2019 04:00:00 12,6 11,9 12,4 16 9 25 14 W 1007,2 3,4 0,1
17.10.2019 03:00:00 12,5 12,0 12,4 16 9 29 16 WNW 1006,8 3,1 0,2
17.10.2019 02:00:00 12,8 12,5 12,9 11 6 22 12 NW 1006,1 2,5 0,5
17.10.2019 01:00:00 13,6 13,2 13,6 15 8 25 14 W 1005,4 2,3 0,8
17.10.2019 00:00:00 14,5 13,7 14,1 28 15 36 19 SSW 1005,2 10 0,6
16.10.2019 23:00:00 14,6 13,8 14,2 28 15 36 19 SSW 1005,4 8 1,1
16.10.2019 22:00:00 14,7 13,9 14,3 31 17 40 21 SSW 1005,2 10 0,0
16.10.2019 21:00:00 14,9 13,9 14,3 29 16 40 21 SSW 1005,1 10 0,4
16.10.2019 20:00:00 14,7 13,9 14,3 31 17 40 21 SSW 1005,2 5 2,4
16.10.2019 19:00:00 14,8 13,9 14,4 34 18 43 23 SSW 1005,0 7 0,6
16.10.2019 18:00:00 15,0 13,9 14,5 28 15 36 19 SSW 1004,9 10 0,0
16.10.2019 17:00:00 15,0 14,0 14,6 29 16 40 21 SSW 1005,1 16 0,0
16.10.2019 16:00:00 14,9 14,1 14,7 31 17 40 21 SSW 1005,1 9 0,0
16.10.2019 15:00:00 14,7 14,0 14,5 31 17 40 21 SSW 1005,1 7 0,0
16.10.2019 14:00:00 14,3 13,8 14,3 31 17 40 21 S 1005,0 4,1 0,0
16.10.2019 13:00:00 13,6 13,0 13,6 34 18 40 21 S 1005,5 4,7 0,2
16.10.2019 12:00:00 13,3 12,5 13,2 34 18 40 21 S 1005,9 8 0,0
16.10.2019 11:00:00 12,9 11,8 13,0 35 19 40 21 S 1006,3 10 0,0
16.10.2019 10:00:00 12,5 11,0 12,3 31 17 40 21 S 1006,7 10 0,0
16.10.2019 09:00:00 12,2 10,7 11,3 29 16 36 19 S 1006,9 10 0,0
16.10.2019 08:00:00 11,6 10,3 11,0 29 16 36 19 S 1007,0 10 0,0
16.10.2019 07:00:00 11,6 10,3 11,0 29 16 36 19 S 1007,3 10 0,0
16.10.2019 06:00:00 11,9 10,6 11,2 29 16 36 19 SSW 1007,4 10 0,0
16.10.2019 05:00:00 12,1 11,0 11,2 29 16 36 19 SSW 1007,5 10 0,0
16.10.2019 04:00:00 12,1 10,8 11,3 28 15 36 19 SSW 1007,9 10 0,0
16.10.2019 03:00:00 12,2 10,8 11,3 26 14 32 18 SSW 1008,1 10 0,0
16.10.2019 02:00:00 12,6 10,8 11,7 24 13 29 16 SW 1008,1 10 0,0
16.10.2019 01:00:00 13,0 10,9 12,1 22 12 29 16 SSW 1008,0 10 0,0
16.10.2019 00:00:00 13,0 10,9 12,2 15 8 18 10 S 1007,8 10 0,0
15.10.2019 23:00:00 13,0 10,8 11,9 18 10 22 12 SSW 1007,9 10 0,0
15.10.2019 22:00:00 13,1 11,1 12,0 16 9 25 14 SW 1007,7 10 0,0
15.10.2019 21:00:00 13,8 11,4 12,7 21 11 25 14 SW 1007,5 10 0,0
15.10.2019 20:00:00 14,1 11,4 13,0 21 11 29 16 WSW 1006,9 10 0,0
15.10.2019 19:00:00 14,3 12,3 13,5 15 8 18 10 SW 1006,4 10 0,0
15.10.2019 18:00:00 14,2 12,0 13,6 22 12 29 16 W 1005,6 10 0,1
15.10.2019 17:00:00 13,9 12,7 13,7 22 12 36 19 W 1005,9 8 0,2
15.10.2019 16:00:00 15,4 12,5 15,1 21 11 25 14 SSW 1005,6 10 0,0
15.10.2019 15:00:00 15,5 12,6 15,4 21 11 25 14 SW 1005,6 10 0,0
15.10.2019 14:00:00 15,6 12,3 15,6 21 11 25 14 SSW 1005,4 10 0,0
15.10.2019 13:00:00 15,6 12,7 - 18 10 25 14 SSW 1005,8 10 0,0
15.10.2019 12:00:00 15,1 12,6 14,8 21 11 25 14 SSW 1005,8 10 0,0
15.10.2019 11:00:00 14,8 13,0 14,9 18 10 22 12 SSW 1005,4 10 0,0
15.10.2019 10:00:00 14,5 13,1 14,1 22 12 29 16 SW 1005,2 10 0,0
15.10.2019 09:00:00 14,6 13,3 14,2 16 9 25 14 SSW 1004,9 5 0,0
15.10.2019 08:00:00 14,7 13,4 14,2 16 9 22 12 SSW 1004,5 10 0,0
15.10.2019 07:00:00 14,8 13,5 14,3 22 12 25 14 SSW 1004,5 10 0,0
15.10.2019 06:00:00 15,0 13,7 14,4 21 11 25 14 SSW 1004,3 10 0,0
15.10.2019 05:00:00 15,1 13,8 14,5 22 12 25 14 S 1004,4 10 0,0
15.10.2019 04:00:00 15,4 13,7 14,8 22 12 25 14 S 1004,0 10 0,0
15.10.2019 03:00:00 15,7 13,7 15,2 24 13 32 18 SW 1004,1 10 0,0
15.10.2019 02:00:00 16,1 13,5 15,4 37 20 47 25 SSW 1003,8 10 0,0
15.10.2019 01:00:00 16,1 14,1 14,9 25 14 36 19 SSW 1004,0 28 0,0
15.10.2019 00:00:00 15,7 14,6 15,1 18 10 25 14 SSE 1003,7 10 0,0
14.10.2019 23:00:00 17,2 15,3 15,6 8 4 14 8 W 1003,7 10 0,0
14.10.2019 22:00:00 17,8 15,4 16,1 22 12 32 18 SSE 1005,2 10 0,3
14.10.2019 21:00:00 17,2 15,0 16,5 16 9 25 14 SE 1004,2 10 0,0
14.10.2019 20:00:00 17,2 15,1 16,3 28 15 29 16 ESE 1004,3 10 0,0
14.10.2019 19:00:00 17,5 15,0 16,8 22 12 25 14 SE 1004,4 10 0,0
14.10.2019 18:00:00 17,5 15,2 17,1 21 11 25 14 ESE 1004,7 10 0,0
14.10.2019 17:00:00 18,2 15,8 17,7 22 12 29 16 E 1005,2 10 0,0
14.10.2019 16:00:00 17,3 15,0 17,6 16 9 25 14 E 1006,3 10 0,0
14.10.2019 15:00:00 16,4 14,6 16,9 18 10 25 14 E 1007,4 10 0,0
14.10.2019 14:00:00 16,3 14,1 16,7 21 11 29 16 E 1008,0 10 0,0
14.10.2019 13:00:00 15,6 13,7 15,6 22 12 40 21 E 1009,2 10 0,0
14.10.2019 12:00:00 14,9 13,0 14,4 21 11 32 18 E 1009,7 10 0,0
14.10.2019 11:00:00 14,2 13,1 14,0 16 9 25 14 E 1010,5 10 1,0
14.10.2019 10:00:00 13,8 12,4 13,3 13 7 18 10 E 1011,8 10 1,5
14.10.2019 09:00:00 13,4 12,3 12,8 9 5 11 6 E 1011,7 10 0,0
14.10.2019 08:00:00 13,1 12,1 12,7 5 3 7 4 ENE 1012,0 10 0,0
14.10.2019 07:00:00 13,6 12,3 13,1 11 6 14 8 S 1012,6 10 0,0
14.10.2019 06:00:00 13,6 12,3 12,9 9 5 14 8 S 1012,3 10 0,0
14.10.2019 05:00:00 13,5 12,2 12,7 5 3 11 6 SSW 1012,4 10 0,0
14.10.2019 04:00:00 13,5 12,2 12,9 9 5 11 6 SW 1012,0 10 0,0
14.10.2019 03:00:00 13,9 12,3 13,2 18 10 22 12 WSW 1013,0 10 0,0
14.10.2019 02:00:00 13,9 12,6 13,2 18 10 25 14 SW 1012,8 10 0,0
14.10.2019 01:00:00 14,2 12,7 13,5 22 12 29 16 WSW 1012,1 15 0,0
14.10.2019 00:00:00 14,5 12,9 13,7 26 14 29 16 WSW 1011,7 10 0,0
13.10.2019 23:00:00 14,7 13,1 13,9 28 15 36 19 WSW 1010,7 10 0,0
13.10.2019 22:00:00 15,1 13,6 14,3 31 17 36 19 WSW 1009,6 10 0,0
13.10.2019 21:00:00 15,4 13,6 14,8 31 17 40 21 WSW 1008,6 10 0,0
13.10.2019 20:00:00 15,8 13,5 15,2 37 20 47 25 WSW 1007,8 10 0,0
13.10.2019 19:00:00 16,4 13,6 15,1 41 22 61 33 W 1006,3 6 1,6
13.10.2019 18:00:00 18,9 14,7 18,2 37 20 54 29 SW 1005,4 10 0,0
13.10.2019 17:00:00 19,2 15,2 18,4 37 20 50 27 SW 1005,1 10 0,0
13.10.2019 16:00:00 19,2 15,3 18,5 39 21 54 29 SW 1004,8 10 0,0
13.10.2019 15:00:00 19,5 15,2 18,8 37 20 54 29 SW 1004,8 10 0,0
13.10.2019 14:00:00 19,5 14,9 19,3 39 21 54 29 SSW 1004,3 10 0,0
13.10.2019 13:00:00 18,8 15,1 19,2 35 19 47 25 S 1004,6 10 0,0
13.10.2019 12:00:00 17,8 15,7 17,3 35 19 43 23 S 1005,3 10 0,0
13.10.2019 11:00:00 17,0 15,7 16,5 35 19 47 25 S 1005,6 10 0,5
13.10.2019 10:00:00 16,5 15,4 15,9 29 16 40 21 S 1005,7 10 0,0
13.10.2019 09:00:00 15,5 14,8 15,0 22 12 29 16 S 1005,9 7 0,0
13.10.2019 08:00:00 15,1 14,5 14,6 26 14 29 16 S 1006,6 6 0,1
13.10.2019 07:00:00 15,0 14,3 14,2 18 10 22 12 S 1006,1 6 0,0
13.10.2019 06:00:00 15,2 14,1 14,4 21 11 29 16 S 1007,0 10 0,0
13.10.2019 05:00:00 15,3 13,9 14,6 21 11 25 14 S 1007,1 10 0,0
13.10.2019 04:00:00 15,3 13,8 14,5 21 11 25 14 SSW 1007,3 10 0,0
13.10.2019 03:00:00 15,1 13,8 14,1 21 11 25 14 SSW 1007,5 10 0,0
13.10.2019 02:00:00 14,4 13,5 13,6 9 5 14 8 S 1007,9 6 0,0
13.10.2019 01:00:00 13,5 13,1 12,7 9 5 14 8 ESE 1008,4 2,6 0,0
13.10.2019 00:00:00 12,5 12,3 11,3 8 4 11 6 E 1009,1 2,4 0,0
12.10.2019 23:00:00 12,2 11,8 12,1 11 6 14 8 ENE 1009,4 5 0,0
12.10.2019 22:00:00 12,1 11,6 12,0 13 7 22 12 NE 1009,4 10 0,2
12.10.2019 21:00:00 12,3 11,9 12,2 11 6 18 10 NNE 1009,5 6 0,2
12.10.2019 20:00:00 12,4 12,0 12,3 11 6 18 10 NE 1009,5 10 0,0
12.10.2019 19:00:00 12,4 11,8 12,3 11 6 18 10 NE 1009,0 10 0,0
12.10.2019 18:00:00 12,6 12,2 12,6 11 6 18 10 NE 1009,2 10 0,0
12.10.2019 17:00:00 12,4 11,9 12,4 11 6 18 10 NE 1009,4 10 0,0
12.10.2019 16:00:00 12,5 11,9 12,6 13 7 14 8 ENE 1009,6 10 0,0
12.10.2019 15:00:00 12,5 12,0 12,6 5 3 14 8 NNE 1009,9 10 0,3
12.10.2019 14:00:00 12,3 11,9 12,7 5 3 14 8 N 1010,2 3,3 0,4
12.10.2019 13:00:00 12,8 12,4 12,9 11 6 14 8 N 1010,1 2,4 0,3
12.10.2019 12:00:00 12,8 12,3 13,1 8 4 14 8 N 1009,4 6 0,2
12.10.2019 11:00:00 12,7 12,5 13,2 5 3 7 4 NW 1009,5 2,3 0,9
12.10.2019 10:00:00 12,7 12,5 12,9 8 4 11 6 W 1008,9 2,4 0,5
12.10.2019 09:00:00 12,6 12,3 12,5 8 4 11 6 W 1008,3 2,9 0,7
12.10.2019 08:00:00 12,3 11,8 12,3 2 1 7 4 - 1007,9 3,9 0,5
12.10.2019 07:00:00 12,2 11,9 12,2 11 6 14 8 NNW 1007,8 2,8 0,7
12.10.2019 06:00:00 12,7 12,1 12,6 13 7 18 10 NNW 1007,4 7 0,3
12.10.2019 05:00:00 13,8 12,5 13,9 15 8 32 18 NW 1007,0 10 0,0
12.10.2019 04:00:00 15,5 12,8 15,1 39 21 50 27 SW 1006,7 10 0,0
12.10.2019 03:00:00 16,0 12,8 15,5 39 21 47 25 SW 1006,8 10 0,0
12.10.2019 02:00:00 16,1 12,8 15,5 37 20 47 25 SW 1007,1 10 0,0
12.10.2019 01:00:00 15,8 12,8 15,0 37 20 47 25 SW 1007,2 10 0,0
12.10.2019 00:00:00 16,1 13,0 15,4 37 20 43 23 SW 1007,2 10 0,0
11.10.2019 23:00:00 16,4 13,1 15,7 37 20 47 25 SW 1007,6 10 0,0

tt = temperature
td = dewpoint
tt 5cm = temperature 5cm
ff = wind speed
fx = gusts
dd = wind direction
ppp = reduced air pressure
vv = visibility
rr = precipitation

Next stations